Showing default

OV3-3, 2389

Orbit data source: Space-Track

OV3-3, 2389 is a payload satellite owned by USAF OAR (US) in LEO that was launched on Thu, 04 Aug 1966 UTC via an SCOUT B launch vehicle from the Air Force Western Test Range (AFWTR). Payload-class satellites include a variety of spacecraft equipped with specific instruments for various scientific and technological missions. These include communications satellites like Starlink; space stations such as the ISS; scientific satellites like the Hubble; Earth observation satellites from companies like Planet Labs, Umbra, and HawkEye 360; GPS; miniature CubeSats for education and research; and military/defense satellites.

Loading next visibility...
Identifier
2389, 1966-070A
Orbit
LEO
Country
Flag of USUS
Related business
Manufacturer
Space General
Mission
Spacecraft
Bus & Motor
OV3, Unknown motor
Mass
77 kg wet, 77 kg dry
Launch date (UTC)
1966-08-04 (59 years ago)
Launch vehicle
SCOUT B
Launch site
Air Force Western Test Range (AFWTR)
Object type
Payload
Rocket body
Debris
Shape & HBR
Unknown
Radar Cross Section
Medium (>0.1 m² and <1 m²)

Expand to show TLE details & history
Last TLE update: 9 hours ago

TLE from 9 hours ago
0 OV3-3
1 02389U 66070A   25300.24139278  .00016920  00000-0  77797-3 0  9995
2 02389  81.3281 175.4887 1042289  39.1886 328.0191 13.38327819567724
Epoch: 2025-10-27T05:47Z
TLE epoch observation values (Epoch: 2025-10-27T05:47:36.336Z)
Latitude
0.00001°
Longitude
52.74124°
Altitude
481.881 km
Speed
7.942 km/s
True Right ascension
11h 41m 57s
True Declination
0° 00' 00"
Sunlit
Object was in daylight at epoch
Visualization orbit readout
Latitude
Unknown
Longitude
Unknown
Altitude
Unknown
Speed
Unknown
Apparent Right ascension
Unknown
Apparent Declination
Unknown
Sunlit
N/A
Visualization observer readout
Local Sidereal Time
09:44:23
Azimuth
Unknown
Elevation
Unknown
Doppler factor
Unknown
Orbital elements
Apogee altitude
1,893.502 km
Perigee altitude
331.971 km
Semi-major axis
7,490.874 km
Eccentricity
0.10423
Inclination
81.3281°
RAAN
175.4887°
Arg. of periapsis
39.1886°
True anomaly
320.93017°
Mean anomaly
328.0191°
Eccentric anomaly
324.55596°
Mean motion
3.34768 °/min
Orbital period
107.54 mins
BSTAR
0.00077797
Loading maneuver chart data...
Computing Atmospheric mass density...
Loading historical data...
Loading historical data...
Loading historical data...
Loading historical data...
Loading historical data...
Loading historical data...
Loading historical data...
Other satellites on launch #70 in the year 1966 (1966-08-04 UTC)

Documentation

Showing up to 5 results
|